Location: Newark
(42.8481°N, 0.4872°E)
Time: 18:23:02
(UTC+00:00)

Vanguard 2 - Pass Details

Date: 31 October 2020
Orbit: 554 x 2937 km, 32.9° (Epoch: 24 November)

Event Time Altitude Azimuth Distance (km) Brightness Sun altitude
Rises 23:08:16 0° 274° (W) 6,091 12.2 -60.8°
Reaches altitude 10° 23:12:10 10° 268° (W) 5,312 11.8 -61.0°
Enters shadow 23:14:18 16° 265° (W) 4,921 11.5 -61.0°
Maximum altitude 23:27:32 46° 203° (SSW) 3,589 - -61.5°
Drops below altitude 10° 23:43:19 10° 137° (SE) 5,423 - -61.7°
Sets 23:47:24 0° 132° (SE) 6,221 - -61.6°
